Regional Weather Roundup
Issued by NWS

Home | Current Version | Previous Version | Text Only | Print | Product List | Glossary Off
Versions: 1 2 3 4 5 6 7 8 9 10 11 12 13 14 15 16 17 18 19 20 21 22 23 24 25 26 27

000
ASUS45 KCYS 182110
RWRWY

WYOMING REGIONAL WEATHER ROUNDUP
NATIONAL WEATHER SERVICE CHEYENNE WY
300 PM MDT WED OCT 18 2017

NOTE:  "FAIR" INDICATES FEW OR NO CLOUDS BELOW 12,000 FEET
WITH NO SIGNIFICANT WEATHER AND/OR OBSTRUCTIONS TO VISIBILITY.

WYZ001-182200-
YELLOWSTONE NATIONAL PARK

CITY           SKY/WX    TMP DP  RH WIND       PRES   REMARKS
LK YELLOWSTONE   N/A     49  22  34 VRB7G23   30.23F
W YELLOWSTONE  NOT AVBL

$$
WYZ002>013-054>058-071-098>099-182200-
NORTHERN WYOMING

CITY           SKY/WX    TMP DP  RH WIND       PRES   REMARKS
JACKSON        FAIR      62  19  19 SW13G21   30.19F
CODY           FAIR      70  12  10 W13G20    30.02F
GREYBULL       FAIR      71  15  11 S9        29.97F
WORLAND        FAIR      72  21  14 E7        29.99F
SHERIDAN       FAIR      70  24  17 SE5       29.96F
BUFFALO        FAIR      70  18  13 S15       30.01F
GILLETTE       FAIR      70  23  17 S14       30.01F
HULETT         FAIR      66  28  24 SW12G21   30.04F
NEWCASTLE      FAIR      64  23  20 S16G23    30.08S

$$
WYZ014>020-022>026-101>103-182200-
CENTRAL WYOMING

CITY           SKY/WX    TMP DP  RH WIND       PRES   REMARKS
BIG PINEY      FAIR      62  10  13 CALM      30.22F
PINEDALE       FAIR      59  10  14 CALM      30.24F
DUBOIS         FAIR      61   5  11 MISG      30.15S
LANDER         FAIR      69  19  15 VRB5      30.07F
RIVERTON       FAIR      68  14  12 S8        30.08F
CASPER         FAIR      70  11  10 SW18G24   30.09F
DOUGLAS        FAIR      71  16  12 S9        30.08F

$$
WYZ021-027>030-104>119-182200-
SOUTHERN WYOMING

CITY           SKY/WX    TMP DP  RH WIND       PRES   REMARKS
EVANSTON       FAIR      65  10  11 SW6       30.24F
KEMMERER       FAIR      61  10  13 W14G22    30.26S
FORT BRIDGER   FAIR      67   9  10 NW5       30.27F
ROCK SPRINGS   FAIR      63   5  10 W10       30.23F
DIXON          FAIR      69   8   9 W14       30.25F
RAWLINS        FAIR      65   7  10 SW16G28   30.21F
SARATOGA       FAIR      66  10  11 W16G23    30.23F
LARAMIE        FAIR      67   4   8 SW8       30.20F
CHEYENNE       FAIR      72   9   8 NW7       30.15F
TORRINGTON     FAIR      73  13  10 SE8       30.06F
PINE BLUFFS    FAIR      72  14  11 NE5       30.12F

$$




USA.gov is the U.S. government's official web portal to all federal, state and local government web resources and services.